Simultaneous Nadir Overpasses (SNOs) Predictions

Prediction of SNOs between NOAA-19 and METOP-C Satellite Orbit:

Table of predicted SNOs for the next 14.0 days since TLE Epoch: 1/10/2020
Index Date (NOAA-19) Time (NOAA-19) Lat,Lon (NOAA-19) SZA (NOAA-19 ) Date (METOP-C) Time (METOP-C) Lat,Lon (METOP-C) SZA (METOP-C ) Distance(km) Time Diff (sec)
1 01/14/2020 15:29:05 -79.72, 147.54 78.56 01/14/2020 15:30:20 -79.72, 147.46 78.55 1.46 75
2 01/14/2020 16:20:10 79.71, -45.07 101.43 01/14/2020 16:20:59 79.74, -45.08 101.46 2.96 49
3 01/14/2020 17:11:06 -79.73, 121.95 78.57 01/14/2020 17:11:41 -79.71, 122.06 78.58 2.88 35
4 01/14/2020 18:02:11 79.72, -70.66 101.42 01/14/2020 18:02:21 79.70, -70.78 101.39 3.29 10
5 01/14/2020 18:53:06 -79.71, 96.65 78.59 01/14/2020 18:53:02 -79.71, 96.65 78.60 0.77 4
6 01/14/2020 19:44:11 79.70, -95.96 101.40 01/14/2020 19:43:41 79.72, -95.90 101.41 2.50 30
7 01/14/2020 20:35:06 -79.69, 71.36 78.61 01/14/2020 20:34:23 -79.70, 71.24 78.63 2.39 43
8 01/14/2020 21:26:12 79.71,-121.55 101.39 01/14/2020 21:25:03 79.68,-121.60 101.35 3.26 69




NCC Satellite Simultaneous Nadir Overpasses (SNOs) Prediction Service
